Location: Baix
(44.7118°N, 4.7648°E)
Time: 16:49:47
(UTC+00:00)

SL-4 R/B - Pass Details

Date: 07 August 2020
Orbit: 428 x 665 km, 51.6° (Epoch: 23 September)

Event Time Altitude Azimuth Distance (km) Brightness Sun altitude
Exits shadow 00:22:06 14° 53° (NE) 1,327 4.5 -28.4°
Drops below altitude 10° 00:22:46 10° 60° (ENE) 1,541 4.7 -28.4°
Sets 00:25:05 0° 74° (ENE) 2,397 5.6 -28.3°
